sat.trackr.live / text

‹ back to catalog

UNKNOWN

NORAD 87204

UNKNOWN UNKNOWN UNKNOWN

§ Identity

Operator
Country
Launch date
Launch site
Launch vehicle
Mass (kg)
RCS (m²)

External: N2YO · Heavens-Above

§ Orbital elements

Epoch: 2026-05-24T01:40:19.585632Z

Period
100.69 min
Inclination
98.5242°
Eccentricity
0.0043983
Mean motion
14.30086400 rev/d
Perigee alt
759.9 km
Apogee alt
823.0 km
Semi-major
7,169.6 km
B*
5.5389e-4
RAAN
6.6181°
Arg perigee
205.3589°
Mean anomaly
154.5435°
Rev number
64,863

§ Raw data

UNKNOWN1 87204U          26144.06967113  .00001403  00000+0  55389-3 0  99912 87204  98.5242   6.6181 0043983 205.3589 154.5435 14.30086400648634

JSON: /api/v1/satellites/87204 · /tle

For live sub-satellite position, see the globe view (requires WebGL).

§ Visibility from observer

Set your observer location to see the next 7 days of passes ≥ 10°. The values pass through the URL so the page stays shareable.

No JS? Fill the form by hand. The geolocation button needs JavaScript.